Total_Precipitation_Accumulation
0.74 0.74 0.79 0.85 0.88 0.89 0.88 0.88 0.93 1.03 1.14 1.35 1.67 2.18 2.45 2.54 2.42 2.35 2.25 2.02 1.78 1.76 1.96 2.00 1.97 1.97 1.97 1.94 1.86 2.03 1.94 1.65 1.58 1.82 1.81 1.63 1.44 1.35 1.33 1.37 1.59 1.67 1.58
0.74 0.72 0.70 0.72 0.75 0.75 0.78 0.92 0.95 1.00 1.10 1.38 1.69 2.07 2.51 2.58 2.52 2.41 2.30 2.19 2.05 1.99 2.02 2.25 2.38 2.35 2.54 2.55 2.32 2.44 2.46 2.05 1.81 2.12 2.47 2.18 1.94 1.49 1.37 1.49 1.54 1.63 1.70
0.60 0.65 0.69 0.69 0.69 0.66 0.62 0.74 0.90 1.07 1.35 1.66 1.95 2.14 2.45 2.56 2.56 2.43 2.36 2.37 2.30 2.18 2.23 2.32 2.49 2.49 2.59 2.80 2.91 2.81 2.88 2.67 2.23 2.11 2.47 2.41 2.24 2.01 1.63 1.52 1.58 1.72 1.78
0.50 0.55 0.63 0.65 0.61 0.57 0.54 0.62 0.78 1.06 1.46 1.81 2.05 2.29 2.65 2.75 2.62 2.56 2.47 2.45 2.45 2.43 2.51 2.52 2.59 2.61 2.62 2.75 2.90 2.89 3.05 3.16 2.75 2.37 2.13 1.99 2.00 2.17 1.99 1.70 1.62 1.75 1.76
0.42 0.47 0.51 0.52 0.54 0.58 0.60 0.65 0.84 1.13 1.46 1.71 1.98 2.31 2.52 2.64 2.72 2.62 2.57 2.55 2.57 2.57 2.60 2.65 2.78 2.77 2.74 2.69 2.91 2.99 3.10 3.05 2.99 2.84 2.66 2.50 2.26 1.91 2.04 2.04 1.84 1.72 1.60
0.39 0.46 0.53 0.55 0.59 0.64 0.72 0.83 1.00 1.17 1.44 1.67 1.96 2.13 2.31 2.47 2.55 2.59 2.53 2.49 2.53 2.62 2.50 2.42 2.57 2.63 2.66 2.63 2.79 2.93 3.07 3.06 3.10 3.03 2.74 2.75 2.66 2.29 2.24 2.08 1.89 1.90 1.70
0.50 0.59 0.65 0.75 0.85 0.87 0.93 1.04 1.16 1.34 1.46 1.57 1.73 1.85 1.99 2.12 2.11 2.24 2.30 2.42 2.41 2.43 2.45 2.36 2.38 2.41 2.35 2.34 2.45 2.49 2.56 2.72 2.92 2.81 2.58 2.52 2.36 2.36 2.47 2.38 2.11 1.90 1.66
0.66 0.80 0.92 1.07 1.15 1.15 1.20 1.28 1.34 1.40 1.43 1.46 1.53 1.66 1.78 1.84 1.83 1.81 1.81 1.96 2.11 2.14 2.20 2.22 2.19 2.25 2.29 2.23 2.31 2.33 2.31 2.34 2.41 2.35 2.46 2.51 2.35 2.29 2.30 2.38 2.57 2.30 2.01
0.93 1.08 1.21 1.31 1.30 1.28 1.28 1.33 1.37 1.39 1.38 1.39 1.42 1.38 1.46 1.53 1.56 1.54 1.60 1.62 1.66 1.68 1.75 1.82 1.96 2.10 2.17 2.18 2.27 2.35 2.31 2.22 2.19 2.28 2.37 2.31 2.26 2.24 2.17 2.19 2.38 2.52 2.35
1.29 1.46 1.62 1.58 1.51 1.51 1.56 1.47 1.38 1.37 1.39 1.40 1.41 1.32 1.36 1.40 1.39 1.32 1.38 1.35 1.31 1.32 1.37 1.48 1.68 1.99 2.15 2.18 2.23 2.27 2.29 2.29 2.22 2.29 2.40 2.44 2.40 2.42 2.37 2.26 2.26 2.22 2.27
1.66 1.78 1.87 1.85 1.67 1.56 1.54 1.48 1.35 1.28 1.25 1.28 1.38 1.36 1.32 1.34 1.37 1.30 1.23 1.21 1.20 1.20 1.27 1.34 1.50 1.68 1.91 2.15 2.29 2.28 2.21 2.20 2.17 2.09 2.20 2.35 2.39 2.50 2.54 2.55 2.46 2.33 2.28
1.59 1.64 1.64 1.70 1.61 1.52 1.42 1.38 1.29 1.13 1.11 1.16 1.23 1.33 1.30 1.26 1.30 1.25 1.29 1.19 1.10 1.09 1.12 1.28 1.49 1.61 1.70 1.79 1.91 1.97 1.96 1.98 2.03 1.99 1.96 2.02 2.10 2.22 2.38 2.47 2.45 2.46 2.36
1.31 1.43 1.50 1.42 1.42 1.40 1.33 1.42 1.44 1.29 1.27 1.27 1.35 1.35 1.31 1.28 1.31 1.22 1.29 1.21 1.13 1.12 1.11 1.20 1.35 1.42 1.51 1.57 1.66 1.79 1.87 1.85 1.80 1.82 1.73 1.70 1.80 1.92 2.07 2.14 2.23 2.38 2.42
1.16 1.22 1.30 1.26 1.33 1.37 1.37 1.47 1.48 1.40 1.42 1.51 1.52 1.41 1.36 1.27 1.23 1.18 1.18 1.18 1.15 1.14 1.17 1.28 1.34 1.37 1.38 1.51 1.58 1.66 1.66 1.59 1.49 1.50 1.46 1.46 1.48 1.58 1.74 1.86 2.06 2.26 2.39
0.96 0.93 0.95 1.00 1.10 1.15 1.16 1.24 1.29 1.31 1.41 1.47 1.47 1.44 1.32 1.18 1.10 1.10 1.03 1.08 1.15 1.14 1.21 1.27 1.35 1.40 1.42 1.45 1.52 1.49 1.40 1.38 1.35 1.29 1.15 1.13 1.21 1.24 1.34 1.35 1.62 1.89 2.12
0.75 0.73 0.72 0.74 0.82 0.77 0.79 0.86 1.00 1.17 1.33 1.39 1.34 1.27 1.16 1.13 1.06 0.98 0.94 0.95 0.99 1.04 1.09 1.15 1.31 1.42 1.33 1.50 1.45 1.29 1.17 1.16 1.20 1.15 1.03 0.98 1.03 0.97 0.97 1.00 1.22 1.53 1.70
0.65 0.67 0.67 0.64 0.68 0.66 0.68 0.75 0.84 1.00 1.13 1.18 1.14 1.04 0.98 0.95 0.93 0.88 0.90 0.92 0.92 0.96 1.01 1.01 1.14 1.22 1.32 1.34 1.18 1.18 1.11 1.11 1.11 1.13 1.13 1.03 0.96 1.06 0.94 0.91 1.00 1.08 1.20
0.57 0.60 0.62 0.60 0.63 0.69 0.73 0.81 0.87 0.89 0.96 1.06 1.05 0.98 0.91 0.85 0.83 0.80 0.84 0.92 0.90 0.87 0.91 0.92 0.91 0.97 1.13 1.15 1.01 1.08 1.02 1.13 1.18 1.19 1.27 1.26 1.17 1.16 1.24 1.15 1.14 1.08 1.01
0.40 0.38 0.40 0.43 0.49 0.56 0.61 0.62 0.65 0.68 0.74 0.81 0.86 0.83 0.74 0.77 0.83 0.79 0.88 0.91 0.86 0.85 0.82 0.86 0.87 0.90 0.96 0.98 0.91 0.95 0.98 1.13 1.16 1.10 1.23 1.29 1.19 1.29 1.42 1.47 1.47 1.37 1.18
0.27 0.24 0.24 0.26 0.31 0.38 0.50 0.56 0.54 0.50 0.52 0.58 0.61 0.67 0.65 0.67 0.75 0.82 0.89 0.91 0.85 0.88 0.84 0.80 0.78 0.78 0.80 0.89 0.81 0.91 0.98 1.06 1.10 1.13 1.17 1.35 1.26 1.25 1.24 1.30 1.41 1.37 1.20
0.23 0.23 0.23 0.24 0.28 0.34 0.40 0.43 0.49 0.46 0.46 0.51 0.52 0.55 0.57 0.61 0.72 0.78 0.73 0.73 0.75 0.80 0.80 0.82 0.77 0.74 0.79 0.90 0.90 0.96 0.97 1.03 1.10 1.20 1.23 1.21 1.34 1.19 1.13 1.12 1.10 1.20 1.22
0.20 0.20 0.22 0.25 0.31 0.32 0.33 0.34 0.36 0.37 0.40 0.43 0.48 0.46 0.44 0.45 0.52 0.60 0.67 0.66 0.66 0.68 0.66 0.68 0.67 0.67 0.75 0.82 0.82 0.84 0.90 0.99 0.99 1.05 1.05 1.03 1.17 1.02 0.94 0.88 0.93 1.03 1.10
0.18 0.19 0.25 0.30 0.34 0.35 0.32 0.30 0.30 0.33 0.39 0.43 0.46 0.44 0.42 0.42 0.45 0.53 0.62 0.68 0.71 0.69 0.64 0.59 0.57 0.60 0.64 0.71 0.74 0.72 0.72 0.77 0.78 0.75 0.89 0.94 0.94 0.89 0.81 0.85 0.90 0.92 0.94
0.17 0.19 0.25 0.29 0.35 0.35 0.34 0.33 0.31 0.30 0.34 0.39 0.44 0.44 0.45 0.46 0.46 0.49 0.57 0.69 0.72 0.66 0.60 0.58 0.58 0.60 0.63 0.63 0.63 0.65 0.64 0.64 0.69 0.68 0.74 0.79 0.79 0.79 0.80 0.83 0.86 0.90 0.93
0.18 0.20 0.24 0.28 0.33 0.37 0.36 0.35 0.33 0.31 0.31 0.35 0.39 0.39 0.43 0.47 0.46 0.41 0.44 0.56 0.62 0.65 0.67 0.65 0.66 0.67 0.66 0.62 0.59 0.57 0.61 0.66 0.72 0.78 0.72 0.69 0.71 0.73 0.80 0.83 0.83 0.87 0.92
0.21 0.22 0.23 0.27 0.28 0.32 0.38 0.39 0.41 0.38 0.35 0.35 0.37 0.39 0.42 0.46 0.48 0.43 0.42 0.46 0.50 0.59 0.63 0.62 0.62 0.55 0.52 0.54 0.51 0.50 0.55 0.62 0.69 0.80 0.84 0.85 0.90 0.93 0.92 0.89 0.83 0.79 0.82